AAL1626 KCLT-KOKC

Flight info

Callsign AAL1626
Flight time 2h 9m
Altitude 36000
Route BOBZY5 BNA J46 PLIED DRLER MURAH3
Aircraft B38M/M-SDE1FGHILORVWXY/HB1

Departure

Time 2026-04-23 20:47
Airport Charlotte Douglas International Airport (KCLT)

Arrival

Time 2026-04-23 22:57
Airport OKC Will Rogers World Airport (KOKC)
Time Latitude Longitude Altitude Speed Heading
2026-04-23 20:24 35.21916 -80.94578 735 ft 0 kts 102°
2026-04-23 20:35 35.21917 -80.94582 735 ft 3 kts 102°
2026-04-23 20:36 35.21920 -80.94615 732 ft 4 kts 92°
2026-04-23 20:36 35.21920 -80.94647 732 ft 4 kts 82°
2026-04-23 20:36 35.21913 -80.94679 735 ft 4 kts 69°
2026-04-23 20:36 35.21901 -80.94708 734 ft 4 kts 54°
2026-04-23 20:37 35.21883 -80.94732 733 ft 4 kts 38°
2026-04-23 20:37 35.21860 -80.94749 734 ft 4 kts 18°
2026-04-23 20:37 35.21839 -80.94753 734 ft 1 kts 356°
2026-04-23 20:40 35.21859 -80.94759 734 ft 7 kts 337°
2026-04-23 20:41 35.21878 -80.94843 735 ft 13 kts 266°
2026-04-23 20:41 35.21874 -80.94900 735 ft 0 kts 264°
2026-04-23 20:41 35.21873 -80.94907 735 ft 2 kts 264°
2026-04-23 20:41 35.21872 -80.94922 735 ft 0 kts 263°
2026-04-23 20:42 35.21870 -80.94935 735 ft 5 kts 262°
2026-04-23 20:43 35.21867 -80.95018 736 ft 12 kts 283°
2026-04-23 20:43 35.21919 -80.95046 736 ft 10 kts 357°
2026-04-23 20:43 35.22006 -80.95056 736 ft 16 kts 354°
2026-04-23 20:43 35.22125 -80.95067 736 ft 17 kts 357°
2026-04-23 20:44 35.22250 -80.95076 736 ft 19 kts 355°
2026-04-23 20:44 35.22340 -80.95083 734 ft 20 kts 356°
2026-04-23 20:44 35.22472 -80.95096 736 ft 15 kts 354°
2026-04-23 20:44 35.22582 -80.95104 736 ft 17 kts 356°
2026-04-23 20:45 35.22690 -80.95114 736 ft 12 kts 354°
2026-04-23 20:45 35.22735 -80.95176 737 ft 9 kts 274°
2026-04-23 20:45 35.22730 -80.95242 740 ft 6 kts 261°
2026-04-23 20:45 35.22725 -80.95278 739 ft 3 kts 253°
2026-04-23 20:46 35.22698 -80.95313 743 ft 10 kts 198°
2026-04-23 20:46 35.22663 -80.95313 740 ft 0 kts 173°
2026-04-23 20:46 35.22615 -80.95308 742 ft 30 kts 176°
2026-04-23 20:47 35.22152 -80.95269 743 ft 101 kts 175°
2026-04-23 20:47 35.21240 -80.95189 739 ft 159 kts 176°
2026-04-23 20:47 35.20004 -80.95092 926 ft 193 kts 178°
2026-04-23 20:47 35.18622 -80.95041 1588 ft 200 kts 180°
2026-04-23 20:48 35.17218 -80.94979 2374 ft 204 kts 180°
2026-04-23 20:48 35.15764 -80.94919 3102 ft 215 kts 183°
2026-04-23 20:48 35.14293 -80.95468 3525 ft 238 kts 218°
2026-04-23 20:48 35.13404 -80.97141 4368 ft 237 kts 256°
2026-04-23 20:49 35.13129 -80.99184 5177 ft 252 kts 262°
2026-04-23 20:49 35.12896 -81.01373 5906 ft 264 kts 262°
2026-04-23 20:49 35.12661 -81.03590 6961 ft 264 kts 262°
2026-04-23 20:49 35.12415 -81.05840 7847 ft 269 kts 262°
2026-04-23 20:50 35.12164 -81.08111 8805 ft 271 kts 262°
2026-04-23 20:50 35.11903 -81.10419 9690 ft 277 kts 262°
2026-04-23 20:50 35.11625 -81.12768 10454 ft 285 kts 262°
2026-04-23 20:50 35.11329 -81.15235 10900 ft 302 kts 263°
2026-04-23 20:51 35.11360 -81.17842 11482 ft 313 kts 282°
2026-04-23 20:51 35.11856 -81.20432 12309 ft 315 kts 282°
2026-04-23 20:51 35.12297 -81.23080 13117 ft 320 kts 282°
2026-04-23 20:51 35.12734 -81.25786 13811 ft 329 kts 282°
2026-04-23 20:52 35.13173 -81.28539 14532 ft 332 kts 282°
2026-04-23 20:52 35.13756 -81.31292 15235 ft 337 kts 285°
2026-04-23 20:52 35.14363 -81.34091 15784 ft 346 kts 285°
2026-04-23 20:52 35.14968 -81.36932 15930 ft 345 kts 285°
2026-04-23 20:53 35.15569 -81.39778 16072 ft 348 kts 284°
2026-04-23 20:53 35.16170 -81.42641 16794 ft 348 kts 284°
2026-04-23 20:53 35.16775 -81.45527 17475 ft 353 kts 284°
2026-04-23 20:53 35.17386 -81.48451 18154 ft 357 kts 284°
2026-04-23 20:54 35.18003 -81.51410 18742 ft 361 kts 284°
2026-04-23 20:54 35.18616 -81.54346 19358 ft 362 kts 284°
2026-04-23 20:54 35.19240 -81.57340 19984 ft 364 kts 284°
2026-04-23 20:54 35.19865 -81.60342 20592 ft 366 kts 284°
2026-04-23 20:55 35.20496 -81.63376 21135 ft 370 kts 284°
2026-04-23 20:55 35.21131 -81.66434 21735 ft 372 kts 284°
2026-04-23 20:55 35.21766 -81.69502 22341 ft 373 kts 284°
2026-04-23 20:55 35.22403 -81.72580 22923 ft 375 kts 284°
2026-04-23 20:56 35.23046 -81.75691 23420 ft 379 kts 284°
2026-04-23 20:56 35.23693 -81.78824 23892 ft 382 kts 284°
2026-04-23 20:56 35.24345 -81.81986 24307 ft 385 kts 284°
2026-04-23 20:56 35.24999 -81.85165 24766 ft 387 kts 284°
2026-04-23 20:57 35.25659 -81.88376 25167 ft 390 kts 284°
2026-04-23 20:57 35.26321 -81.91600 25628 ft 392 kts 284°
2026-04-23 20:57 35.26985 -81.94839 26041 ft 394 kts 284°
2026-04-23 20:57 35.27654 -81.98112 26429 ft 398 kts 284°
2026-04-23 20:58 35.28325 -82.01395 26860 ft 399 kts 284°
2026-04-23 20:58 35.29001 -82.04705 27264 ft 402 kts 284°
2026-04-23 20:58 35.29679 -82.08035 27641 ft 405 kts 284°
2026-04-23 20:58 35.30361 -82.11389 28039 ft 407 kts 284°
2026-04-23 20:59 35.31044 -82.14754 28420 ft 409 kts 284°
2026-04-23 20:59 35.31733 -82.18148 28790 ft 412 kts 284°
2026-04-23 20:59 35.32424 -82.21562 29163 ft 414 kts 285°
2026-04-23 20:59 35.33118 -82.24993 29532 ft 416 kts 285°
2026-04-23 21:00 35.33814 -82.28444 29890 ft 419 kts 285°
2026-04-23 21:00 35.34514 -82.31914 30225 ft 421 kts 285°
2026-04-23 21:00 35.35213 -82.35394 30517 ft 423 kts 285°
2026-04-23 21:00 35.35918 -82.38903 30824 ft 425 kts 285°
2026-04-23 21:01 35.36624 -82.42419 31115 ft 427 kts 285°
2026-04-23 21:01 35.37335 -82.45970 31386 ft 429 kts 285°
2026-04-23 21:01 35.38045 -82.49527 31683 ft 431 kts 285°
2026-04-23 21:01 35.38758 -82.53098 32002 ft 433 kts 285°
2026-04-23 21:02 35.39473 -82.56686 32284 ft 435 kts 285°
2026-04-23 21:02 35.40191 -82.60297 32567 ft 437 kts 285°
2026-04-23 21:02 35.40902 -82.63876 32833 ft 439 kts 285°
2026-04-23 21:02 35.41622 -82.67511 33173 ft 438 kts 285°
2026-04-23 21:03 35.42338 -82.71131 33566 ft 438 kts 285°
2026-04-23 21:03 35.43065 -82.74811 33957 ft 437 kts 285°
2026-04-23 21:03 35.43767 -82.78372 34308 ft 435 kts 285°
2026-04-23 21:03 35.44477 -82.81977 34610 ft 435 kts 285°
2026-04-23 21:04 35.45186 -82.85584 34927 ft 434 kts 285°
2026-04-23 21:04 35.45892 -82.89174 35243 ft 433 kts 285°
2026-04-23 21:04 35.46594 -82.92759 35552 ft 432 kts 285°
2026-04-23 21:04 35.47295 -82.96341 35852 ft 431 kts 285°
2026-04-23 21:05 35.47993 -82.99920 36064 ft 432 kts 285°
2026-04-23 21:05 35.48690 -83.03501 36063 ft 430 kts 285°
2026-04-23 21:05 35.50073 -83.10612 36065 ft 429 kts 285°
2026-04-23 21:06 35.51467 -83.17808 36059 ft 436 kts 285°
2026-04-23 21:06 35.52865 -83.25047 36055 ft 436 kts 285°
2026-04-23 21:07 35.54261 -83.32297 36058 ft 436 kts 285°
2026-04-23 21:07 35.55651 -83.39547 36056 ft 437 kts 285°
2026-04-23 21:08 35.57037 -83.46802 36054 ft 436 kts 285°
2026-04-23 21:08 35.58421 -83.54058 36048 ft 436 kts 285°
2026-04-23 21:09 35.59786 -83.61255 36046 ft 435 kts 284°
2026-04-23 21:09 35.61157 -83.68502 36046 ft 435 kts 284°
2026-04-23 21:10 35.62522 -83.75749 36041 ft 435 kts 284°
2026-04-23 21:10 35.63882 -83.82991 36042 ft 435 kts 284°
2026-04-23 21:11 35.65239 -83.90245 36038 ft 435 kts 284°
2026-04-23 21:11 35.66592 -83.97498 36036 ft 436 kts 284°
2026-04-23 21:12 35.67942 -84.04764 36034 ft 436 kts 284°
2026-04-23 21:12 35.69289 -84.12038 36038 ft 436 kts 284°
2026-04-23 21:13 35.70628 -84.19299 36036 ft 436 kts 284°
2026-04-23 21:13 35.71966 -84.26579 36039 ft 436 kts 284°
2026-04-23 21:14 35.73289 -84.33804 36034 ft 436 kts 283°
2026-04-23 21:14 35.74625 -84.41123 36040 ft 436 kts 283°
2026-04-23 21:15 35.75940 -84.48356 36043 ft 436 kts 283°
2026-04-23 21:15 35.77258 -84.55632 36041 ft 435 kts 283°
2026-04-23 21:16 35.78572 -84.62912 36043 ft 435 kts 283°
2026-04-23 21:16 35.79880 -84.70187 36043 ft 435 kts 283°
2026-04-23 21:17 35.81183 -84.77450 36043 ft 434 kts 283°
2026-04-23 21:17 35.82477 -84.84702 36049 ft 433 kts 283°
2026-04-23 21:18 35.83769 -84.91968 36051 ft 434 kts 283°
2026-04-23 21:18 35.85055 -84.99229 36057 ft 434 kts 282°
2026-04-23 21:19 35.86341 -85.06505 36081 ft 434 kts 282°
2026-04-23 21:19 35.87617 -85.13768 36085 ft 434 kts 282°
2026-04-23 21:20 35.88893 -85.21048 36078 ft 434 kts 282°
2026-04-23 21:20 35.90163 -85.28324 36075 ft 434 kts 282°
2026-04-23 21:21 35.91428 -85.35599 36041 ft 434 kts 282°
2026-04-23 21:21 35.92691 -85.42877 36040 ft 434 kts 282°
2026-04-23 21:22 35.93948 -85.50160 36036 ft 433 kts 282°
2026-04-23 21:22 35.95197 -85.57430 36037 ft 433 kts 282°
2026-04-23 21:23 35.96435 -85.64662 36038 ft 433 kts 282°
2026-04-23 21:23 35.97677 -85.71938 36039 ft 433 kts 282°
2026-04-23 21:24 35.98914 -85.79216 36036 ft 433 kts 281°
2026-04-23 21:24 36.00147 -85.86499 36041 ft 433 kts 281°
2026-04-23 21:25 36.01375 -85.93784 36042 ft 433 kts 281°
2026-04-23 21:25 36.02599 -86.01070 36040 ft 433 kts 281°
2026-04-23 21:26 36.03819 -86.08357 36040 ft 433 kts 281°
2026-04-23 21:26 36.05034 -86.15648 36042 ft 433 kts 281°
2026-04-23 21:27 36.06244 -86.22933 36042 ft 433 kts 281°
2026-04-23 21:27 36.07448 -86.30217 36032 ft 433 kts 281°
2026-04-23 21:28 36.08649 -86.37506 36027 ft 433 kts 281°
2026-04-23 21:28 36.09836 -86.44745 36027 ft 433 kts 281°
2026-04-23 21:29 36.11029 -86.52046 36028 ft 433 kts 281°
2026-04-23 21:29 36.12216 -86.59337 36027 ft 432 kts 280°
2026-04-23 21:30 36.13398 -86.66629 36027 ft 432 kts 280°
2026-04-23 21:30 36.13737 -86.70307 36017 ft 430 kts 269°
2026-04-23 21:30 36.13750 -86.74007 36026 ft 431 kts 270°
2026-04-23 21:31 36.13837 -86.81424 36002 ft 431 kts 270°
2026-04-23 21:31 36.13912 -86.88844 35996 ft 431 kts 270°
2026-04-23 21:32 36.13982 -86.96263 36003 ft 431 kts 270°
2026-04-23 21:32 36.14047 -87.03672 36002 ft 431 kts 270°
2026-04-23 21:33 36.14098 -87.09838 36006 ft 431 kts 270°
2026-04-23 21:33 36.14155 -87.17253 36004 ft 431 kts 270°
2026-04-23 21:34 36.14207 -87.24672 36013 ft 431 kts 270°
2026-04-23 21:34 36.14255 -87.32086 36014 ft 431 kts 270°
2026-04-23 21:35 36.14298 -87.39497 36014 ft 431 kts 269°
2026-04-23 21:35 36.14337 -87.46907 36016 ft 431 kts 269°
2026-04-23 21:36 36.14386 -87.58026 36010 ft 431 kts 269°
2026-04-23 21:37 36.14413 -87.65437 36013 ft 431 kts 269°
2026-04-23 21:37 36.14437 -87.72852 36006 ft 431 kts 269°
2026-04-23 21:38 36.14455 -87.80263 36007 ft 431 kts 269°
2026-04-23 21:38 36.14468 -87.87673 36002 ft 431 kts 269°
2026-04-23 21:39 36.14477 -87.95079 36000 ft 431 kts 269°
2026-04-23 21:39 36.14481 -88.02496 35996 ft 431 kts 269°
2026-04-23 21:40 36.14481 -88.09900 36005 ft 431 kts 269°
2026-04-23 21:40 36.14476 -88.17251 35978 ft 429 kts 269°
2026-04-23 21:41 36.14467 -88.24642 35972 ft 430 kts 268°
2026-04-23 21:41 36.14453 -88.32036 35963 ft 430 kts 268°
2026-04-23 21:42 36.14435 -88.39422 35966 ft 430 kts 268°
2026-04-23 21:42 36.14413 -88.46819 35963 ft 430 kts 268°
2026-04-23 21:43 36.14388 -88.54202 35962 ft 428 kts 268°
2026-04-23 21:43 36.14353 -88.61572 35962 ft 429 kts 268°
2026-04-23 21:44 36.14317 -88.68941 35966 ft 428 kts 268°
2026-04-23 21:44 36.14277 -88.76313 35968 ft 428 kts 268°
2026-04-23 21:45 36.14232 -88.83689 35951 ft 429 kts 268°
2026-04-23 21:45 36.14182 -88.91055 35947 ft 427 kts 268°
2026-04-23 21:46 36.14128 -88.98402 35951 ft 427 kts 268°
2026-04-23 21:46 36.14069 -89.05751 35952 ft 427 kts 267°
2026-04-23 21:47 36.14006 -89.13101 35977 ft 427 kts 267°
2026-04-23 21:47 36.13939 -89.20449 35969 ft 427 kts 267°
2026-04-23 21:48 36.13868 -89.27744 35979 ft 426 kts 267°
2026-04-23 21:48 36.13793 -89.35054 35970 ft 425 kts 267°
2026-04-23 21:49 36.13712 -89.42370 35968 ft 425 kts 267°
2026-04-23 21:49 36.13627 -89.49680 35969 ft 425 kts 267°
2026-04-23 21:50 36.13538 -89.56988 35963 ft 425 kts 267°
2026-04-23 21:50 36.13445 -89.64299 35974 ft 425 kts 267°
2026-04-23 21:51 36.13347 -89.71610 35943 ft 425 kts 267°
2026-04-23 21:51 36.13244 -89.78918 35940 ft 425 kts 267°
2026-04-23 21:52 36.13137 -89.86225 35933 ft 425 kts 267°
2026-04-23 21:52 36.13025 -89.93535 35933 ft 425 kts 267°
2026-04-23 21:53 36.12913 -90.00843 35921 ft 425 kts 268°
2026-04-23 21:53 36.12793 -90.08147 35916 ft 425 kts 268°
2026-04-23 21:54 36.12663 -90.15448 35915 ft 425 kts 268°
2026-04-23 21:54 36.12531 -90.22754 35919 ft 425 kts 268°
2026-04-23 21:55 36.12397 -90.30056 35920 ft 425 kts 268°
2026-04-23 21:55 36.12258 -90.37361 35920 ft 425 kts 267°
2026-04-23 21:56 36.12117 -90.44658 35921 ft 424 kts 268°
2026-04-23 21:56 36.11969 -90.51955 35917 ft 424 kts 268°
2026-04-23 21:57 36.11817 -90.59253 35916 ft 424 kts 268°
2026-04-23 21:57 36.11662 -90.66550 35909 ft 424 kts 268°
2026-04-23 21:58 36.11501 -90.73846 35914 ft 425 kts 267°
2026-04-23 21:58 36.11337 -90.81099 35911 ft 424 kts 267°
2026-04-23 21:59 36.11167 -90.88417 35908 ft 423 kts 267°
2026-04-23 21:59 36.11054 -90.95651 35899 ft 424 kts 272°
2026-04-23 22:00 36.11513 -91.06564 35908 ft 424 kts 271°
2026-04-23 22:00 36.11769 -91.13855 35907 ft 424 kts 271°
2026-04-23 22:01 36.12019 -91.21141 35907 ft 425 kts 271°
2026-04-23 22:01 36.12265 -91.28441 35903 ft 425 kts 271°
2026-04-23 22:02 36.12505 -91.35738 35903 ft 425 kts 271°
2026-04-23 22:02 36.12742 -91.43039 35909 ft 425 kts 271°
2026-04-23 22:03 36.12974 -91.50337 35912 ft 425 kts 271°
2026-04-23 22:03 36.13211 -91.57634 35914 ft 424 kts 271°
2026-04-23 22:04 36.13449 -91.64923 35909 ft 424 kts 271°
2026-04-23 22:04 36.13681 -91.72209 35912 ft 424 kts 271°
2026-04-23 22:05 36.13908 -91.79495 35912 ft 424 kts 271°
2026-04-23 22:05 36.14131 -91.86772 35909 ft 424 kts 271°
2026-04-23 22:06 36.14349 -91.94017 35917 ft 424 kts 271°
2026-04-23 22:06 36.14563 -92.01307 35907 ft 424 kts 271°
2026-04-23 22:07 36.14774 -92.08598 35902 ft 424 kts 271°
2026-04-23 22:07 36.14980 -92.15885 35902 ft 424 kts 271°
2026-04-23 22:08 36.15181 -92.23168 35905 ft 424 kts 271°
2026-04-23 22:08 36.15376 -92.30457 35912 ft 424 kts 271°
2026-04-23 22:09 36.15568 -92.37732 35895 ft 422 kts 271°
2026-04-23 22:09 36.15755 -92.44986 35899 ft 422 kts 271°
2026-04-23 22:10 36.15938 -92.52249 35903 ft 422 kts 271°
2026-04-23 22:10 36.16116 -92.59511 35900 ft 422 kts 271°
2026-04-23 22:11 36.16290 -92.66769 35895 ft 422 kts 271°
2026-04-23 22:11 36.16461 -92.74034 35895 ft 422 kts 271°
2026-04-23 22:12 36.16626 -92.81302 35885 ft 423 kts 271°
2026-04-23 22:12 36.16786 -92.88562 35888 ft 422 kts 271°
2026-04-23 22:13 36.16942 -92.95779 35883 ft 423 kts 271°
2026-04-23 22:13 36.17094 -93.03050 35888 ft 422 kts 270°
2026-04-23 22:14 36.17242 -93.10305 35889 ft 421 kts 271°
2026-04-23 22:14 36.17385 -93.17550 35894 ft 422 kts 271°
2026-04-23 22:15 36.17524 -93.24796 35889 ft 419 kts 271°
2026-04-23 22:15 36.17658 -93.32019 35883 ft 421 kts 271°
2026-04-23 22:16 36.17788 -93.39270 35871 ft 421 kts 270°
2026-04-23 22:16 36.17916 -93.46490 35865 ft 420 kts 271°
2026-04-23 22:17 36.18036 -93.53733 35858 ft 422 kts 271°
2026-04-23 22:17 36.18153 -93.60979 35843 ft 419 kts 271°
2026-04-23 22:18 36.18265 -93.68207 35844 ft 421 kts 271°
2026-04-23 22:18 36.18372 -93.75419 35848 ft 421 kts 270°
2026-04-23 22:19 36.18477 -93.82633 35842 ft 419 kts 270°
2026-04-23 22:19 36.18575 -93.89858 35851 ft 420 kts 270°
2026-04-23 22:20 36.18670 -93.97077 35852 ft 419 kts 270°
2026-04-23 22:20 36.18760 -94.04304 35849 ft 421 kts 270°
2026-04-23 22:21 36.18847 -94.11550 35851 ft 420 kts 270°
2026-04-23 22:21 36.18928 -94.18779 35850 ft 420 kts 270°
2026-04-23 22:22 36.19005 -94.26011 35826 ft 419 kts 270°
2026-04-23 22:22 36.19078 -94.33212 35822 ft 418 kts 270°
2026-04-23 22:23 36.19137 -94.39193 35834 ft 419 kts 271°
2026-04-23 22:23 36.19201 -94.46402 35833 ft 419 kts 270°
2026-04-23 22:24 36.19261 -94.53607 35830 ft 418 kts 270°
2026-04-23 22:24 36.19318 -94.60812 35839 ft 418 kts 270°
2026-04-23 22:25 36.19369 -94.67981 35825 ft 416 kts 270°
2026-04-23 22:25 36.19417 -94.75134 35797 ft 416 kts 270°
2026-04-23 22:26 36.19460 -94.82309 35801 ft 416 kts 270°
2026-04-23 22:26 36.19499 -94.89472 35789 ft 416 kts 270°
2026-04-23 22:27 36.19534 -94.96637 35792 ft 416 kts 270°
2026-04-23 22:27 36.19564 -95.03786 35782 ft 415 kts 270°
2026-04-23 22:28 36.19590 -95.10932 35775 ft 415 kts 270°
2026-04-23 22:28 36.19613 -95.18077 35763 ft 415 kts 270°
2026-04-23 22:29 36.19630 -95.25218 35762 ft 415 kts 270°
2026-04-23 22:29 36.19644 -95.32315 35757 ft 415 kts 270°
2026-04-23 22:30 36.19653 -95.39465 35748 ft 415 kts 270°
2026-04-23 22:30 36.19659 -95.46611 35748 ft 415 kts 270°
2026-04-23 22:31 36.19661 -95.53755 35749 ft 415 kts 270°
2026-04-23 22:31 36.19660 -95.60900 35750 ft 415 kts 270°
2026-04-23 22:32 36.19654 -95.68045 35736 ft 415 kts 270°
2026-04-23 22:32 36.19644 -95.75185 35735 ft 414 kts 270°
2026-04-23 22:33 36.19524 -95.82287 35707 ft 413 kts 259°
2026-04-23 22:33 36.18321 -95.89230 35733 ft 413 kts 261°
2026-04-23 22:34 36.17356 -95.96245 35477 ft 411 kts 261°
2026-04-23 22:34 36.16891 -95.99736 34765 ft 412 kts 262°
2026-04-23 22:34 36.16426 -96.03244 34086 ft 413 kts 262°
2026-04-23 22:35 36.15963 -96.06752 33451 ft 412 kts 262°
2026-04-23 22:35 36.15499 -96.10251 32805 ft 414 kts 261°
2026-04-23 22:35 36.15031 -96.13764 32168 ft 414 kts 261°
2026-04-23 22:35 36.14561 -96.17290 31546 ft 416 kts 261°
2026-04-23 22:36 36.14088 -96.20828 30935 ft 418 kts 261°
2026-04-23 22:36 36.13612 -96.24388 30335 ft 420 kts 261°
2026-04-23 22:36 36.13134 -96.27957 29743 ft 422 kts 261°
2026-04-23 22:36 36.12653 -96.31539 29061 ft 423 kts 261°
2026-04-23 22:37 36.12168 -96.35139 28384 ft 425 kts 261°
2026-04-23 22:37 36.11680 -96.38750 27720 ft 426 kts 260°
2026-04-23 22:37 36.11189 -96.42375 27059 ft 428 kts 260°
2026-04-23 22:37 36.10695 -96.46016 26421 ft 430 kts 260°
2026-04-23 22:38 36.10199 -96.49657 25830 ft 430 kts 260°
2026-04-23 22:38 36.09703 -96.53298 25227 ft 427 kts 259°
2026-04-23 22:38 36.09212 -96.56889 24679 ft 420 kts 259°
2026-04-23 22:38 36.08738 -96.60362 24241 ft 412 kts 260°
2026-04-23 22:39 36.08266 -96.63811 23803 ft 403 kts 259°
2026-04-23 22:39 36.07796 -96.67225 23373 ft 402 kts 259°
2026-04-23 22:39 36.07328 -96.70626 22920 ft 400 kts 259°
2026-04-23 22:39 36.06863 -96.74004 22544 ft 398 kts 259°
2026-04-23 22:40 36.06396 -96.77375 22157 ft 396 kts 259°
2026-04-23 22:40 36.05933 -96.80719 21781 ft 394 kts 259°
2026-04-23 22:40 36.05012 -96.87352 21045 ft 388 kts 260°
2026-04-23 22:41 36.04556 -96.90623 20672 ft 385 kts 260°
2026-04-23 22:41 36.04102 -96.93877 20312 ft 383 kts 260°
2026-04-23 22:41 36.03652 -96.97106 19939 ft 381 kts 260°
2026-04-23 22:41 36.03201 -97.00321 19590 ft 379 kts 260°
2026-04-23 22:42 36.02751 -97.03519 19245 ft 377 kts 260°
2026-04-23 22:42 36.02305 -97.06684 18908 ft 370 kts 260°
2026-04-23 22:42 36.01869 -97.09777 18575 ft 357 kts 260°
2026-04-23 22:42 36.01361 -97.12748 18217 ft 351 kts 251°
2026-04-23 22:43 36.00194 -97.15304 17916 ft 339 kts 232°
2026-04-23 22:43 35.98508 -97.17320 17540 ft 338 kts 226°
2026-04-23 22:43 35.96784 -97.19273 17167 ft 335 kts 226°
2026-04-23 22:43 35.95068 -97.21195 16793 ft 332 kts 225°
2026-04-23 22:44 35.93355 -97.23098 16419 ft 330 kts 225°
2026-04-23 22:44 35.91672 -97.24957 16051 ft 328 kts 225°
2026-04-23 22:44 35.89972 -97.26829 15643 ft 327 kts 225°
2026-04-23 22:44 35.88280 -97.28694 15240 ft 325 kts 225°
2026-04-23 22:45 35.86597 -97.30546 14838 ft 323 kts 224°
2026-04-23 22:45 35.84937 -97.32372 14484 ft 314 kts 224°
2026-04-23 22:45 35.83340 -97.34129 14119 ft 302 kts 224°
2026-04-23 22:45 35.81789 -97.35833 13754 ft 298 kts 224°
2026-04-23 22:46 35.80244 -97.37532 13385 ft 298 kts 224°
2026-04-23 22:46 35.78691 -97.39237 12971 ft 298 kts 224°
2026-04-23 22:46 35.77144 -97.40936 12571 ft 298 kts 224°
2026-04-23 22:46 35.75602 -97.42627 12156 ft 297 kts 224°
2026-04-23 22:47 35.74076 -97.44300 11654 ft 290 kts 224°
2026-04-23 22:47 35.72617 -97.45963 11168 ft 282 kts 226°
2026-04-23 22:47 35.71404 -97.47788 10666 ft 273 kts 245°
2026-04-23 22:47 35.71068 -97.50054 10226 ft 270 kts 266°
2026-04-23 22:48 35.71143 -97.52334 9827 ft 263 kts 268°
2026-04-23 22:48 35.71251 -97.54557 9408 ft 257 kts 268°
2026-04-23 22:48 35.71363 -97.56730 8937 ft 252 kts 268°
2026-04-23 22:48 35.71474 -97.58869 8480 ft 249 kts 268°
2026-04-23 22:49 35.71580 -97.60985 8014 ft 247 kts 268°
2026-04-23 22:49 35.71679 -97.63088 7565 ft 246 kts 268°
2026-04-23 22:49 35.71777 -97.65188 7123 ft 245 kts 265°
2026-04-23 22:49 35.71369 -97.67140 6652 ft 234 kts 233°
2026-04-23 22:50 35.70096 -97.68312 6203 ft 234 kts 199°
2026-04-23 22:50 35.68456 -97.68235 5763 ft 249 kts 165°
2026-04-23 22:50 35.67063 -97.66882 5304 ft 267 kts 134°
2026-04-23 22:50 35.66094 -97.64930 5136 ft 264 kts 128°
2026-04-23 22:51 35.65142 -97.63077 5066 ft 248 kts 136°
2026-04-23 22:51 35.64101 -97.61451 5034 ft 237 kts 138°
2026-04-23 22:51 35.63035 -97.59963 4993 ft 224 kts 152°
2026-04-23 22:51 35.61728 -97.59199 4978 ft 197 kts 174°
2026-04-23 22:52 35.60420 -97.59006 4943 ft 191 kts 181°
2026-04-23 22:52 35.59097 -97.58940 4724 ft 189 kts 183°
2026-04-23 22:52 35.57789 -97.58918 4501 ft 186 kts 184°
2026-04-23 22:52 35.56502 -97.58911 4264 ft 185 kts 183°
2026-04-23 22:53 35.55214 -97.58907 4055 ft 185 kts 184°
2026-04-23 22:53 35.53928 -97.58905 3820 ft 185 kts 183°
2026-04-23 22:53 35.52646 -97.58902 3574 ft 183 kts 183°
2026-04-23 22:53 35.51385 -97.58900 3339 ft 180 kts 182°
2026-04-23 22:54 35.50131 -97.58901 3112 ft 181 kts 182°
2026-04-23 22:54 35.48869 -97.58898 2879 ft 179 kts 180°
2026-04-23 22:54 35.47694 -97.58899 2700 ft 161 kts 180°
2026-04-23 22:54 35.46615 -97.58899 2490 ft 149 kts 180°
2026-04-23 22:55 35.45641 -97.58898 2330 ft 130 kts 181°
2026-04-23 22:55 35.44749 -97.58891 2191 ft 127 kts 179°
2026-04-23 22:55 35.43864 -97.58884 1945 ft 128 kts 181°
2026-04-23 22:55 35.42951 -97.58927 1811 ft 134 kts 179°
2026-04-23 22:56 35.42019 -97.58907 1628 ft 133 kts 175°
2026-04-23 22:56 35.41092 -97.58891 1438 ft 133 kts 179°
2026-04-23 22:56 35.40173 -97.58898 1302 ft 127 kts 176°
2026-04-23 22:56 35.39418 -97.58894 1294 ft 79 kts 180°
2026-04-23 22:57 35.39085 -97.58895 1297 ft 23 kts 180°
2026-04-23 22:57 35.39039 -97.58901 1296 ft 6 kts 192°
2026-04-23 22:57 35.38981 -97.58954 1297 ft 10 kts 245°
2026-04-23 22:57 35.38976 -97.59018 1296 ft 9 kts 270°
2026-04-23 22:58 35.38977 -97.59128 1295 ft 14 kts 269°
2026-04-23 22:58 35.38978 -97.59263 1294 ft 17 kts 272°
2026-04-23 22:58 35.38977 -97.59419 1292 ft 20 kts 269°
2026-04-23 22:58 35.39010 -97.59527 1291 ft 14 kts 340°
2026-04-23 22:59 35.39114 -97.59532 1291 ft 16 kts 359°
2026-04-23 22:59 35.39219 -97.59535 1296 ft 14 kts 359°
2026-04-23 22:59 35.39307 -97.59534 1300 ft 10 kts
2026-04-23 22:59 35.39375 -97.59545 1300 ft 11 kts 349°
2026-04-23 23:00 35.39437 -97.59557 1300 ft 4 kts 352°
2026-04-23 23:00 35.39456 -97.59561 1300 ft 1 kts 351°
2026-04-23 23:00 35.39457 -97.59561 1300 ft 0 kts 350°